Massena, NY

5:07 PM EDT on May 28, 2017 (GMT -0400)
Massena International-Richards

Weather History for KMSS - May, 2013

Change the Weather History Date:

Saturday, May 18, 2013

  Actual Average Record
Temperature  
Mean Temperature 54 °F 56 °F  
Max Temperature 72 °F 67 °F 90 °F (1962)
Min Temperature 35 °F 44 °F 28 °F (1967)
Degree Days  
Heating Degree Days 12 10  
Month to date heating degree days 218  
Since 1 July heating degree days 8000  
Cooling Degree Days 0 0  
Month to date cooling degree days 0 0  
Year to date cooling degree days 0 1  
Growing Degree Days 4 (Base 50)    
Moisture  
Dew Point 38 °F    
Average Humidity 63    
Maximum Humidity 100    
Minimum Humidity 25    
Precipitation  
Precipitation 0.00 in 0.10 in 1.67 in (1973)
Month to date precipitation 1.39 1.72  
Year to date precipitation 5.89 10.58  
Sea Level Pressure  
Sea Level Pressure 30.25 in    
Wind  
Wind Speed 2 mph (NNW)    
Max Wind Speed 12 mph    
Max Gust Speed 17 mph    
Visibility 9 miles    
Events      
T = Trace of Precipitation, MM = Missing Value Source: NWS Daily Summary

Daily Weather History Graph

Daily Weather History Graph

Search for Another Location

Airport or City:

Trip Planner

Search our weather history database for the weather conditions in past years. The results will help you decide how hot, cold, wet, or windy it might be!

Date:

Astronomy

May. 18, 2013 Rise Set
Actual Time 5:27 AM EDT 8:25 PM EDT
Civil Twilight 4:52 AM EDT 8:59 PM EDT
Nautical Twilight 4:08 AM EDT 9:44 PM EDT
Astronomical Twilight 3:15 AM EDT 10:37 PM EDT
Moon 1:08 PM EDT (5/18) 1:37 AM EDT (5/18)
Length of Visible Light 16h 07m
Length of Day
14h 58m
First Quarter, 55% of the Moon is Illuminated
May 18
First Quarter
May 25
Full
May 31
Last Quarter
Jun 8
New
Jun 16
First Quarter

Hourly Weather History & Observations

Time (EDT) Temp. Windchill Dew Point Humidity Pressure Visibility Wind Dir Wind Speed Gust Speed Precip Events Conditions
12:53 AM 46.0 °F 43.1 °F 39.9 °F 79% 30.24 in 10.0 mi SW 5.8 mph - N/A   Clear
1:53 AM 44.1 °F 41.5 °F 39.0 °F 82% 30.24 in 10.0 mi SW 4.6 mph - N/A   Clear
2:53 AM 44.1 °F - 39.0 °F 82% 30.24 in 10.0 mi Calm Calm - N/A   Clear
3:53 AM 41.0 °F - 39.0 °F 93% 30.25 in 10.0 mi Calm Calm - N/A   Clear
4:53 AM 37.9 °F - 36.0 °F 93% 30.26 in 10.0 mi Calm Calm - N/A   Clear
5:23 AM 37.4 °F - 37.4 °F 100% 30.25 in 1.8 mi Calm Calm - N/A   Clear
5:26 AM 37.4 °F - 37.4 °F 100% 30.26 in 0.8 mi Calm Calm - N/A   Clear
5:35 AM 35.6 °F - 35.6 °F 100% 30.26 in 2.0 mi Calm Calm - N/A   Clear
5:42 AM 37.4 °F - 35.6 °F 93% 30.26 in 1.5 mi Calm Calm - N/A   Clear
5:51 AM 37.4 °F - 37.4 °F 100% 30.27 in 4.0 mi Calm Calm - N/A   Clear
5:53 AM 37.9 °F - 37.0 °F 97% 30.28 in 9.0 mi Calm Calm - N/A   Clear
6:53 AM 43.0 °F - 39.9 °F 89% 30.30 in 10.0 mi Calm Calm - N/A   Clear
7:53 AM 50.0 °F - 42.1 °F 74% 30.31 in 10.0 mi Calm Calm - N/A   Clear
8:53 AM 57.0 °F - 43.0 °F 59% 30.31 in 10.0 mi Calm Calm - N/A   Clear
9:53 AM 62.1 °F - 41.0 °F 46% 30.31 in 10.0 mi Calm Calm - N/A   Clear
10:53 AM 66.0 °F - 39.0 °F 37% 30.30 in 10.0 mi Calm Calm - N/A   Clear
11:53 AM 68.0 °F - 35.1 °F 30% 30.28 in 10.0 mi Variable 4.6 mph - N/A   Clear
12:53 PM 69.1 °F - 33.1 °F 26% 30.27 in 10.0 mi Variable 4.6 mph - N/A   Clear
1:53 PM 71.1 °F - 37.0 °F 29% 30.25 in 10.0 mi NW 8.1 mph - N/A   Clear
2:53 PM 69.8 °F - 37.4 °F 31% 30.23 in 10.0 mi NW 8.1 mph - N/A   Clear
3:53 PM 72.0 °F - 35.1 °F 26% 30.22 in 10.0 mi Variable 3.5 mph - N/A   Clear
4:53 PM 71.1 °F - 33.1 °F 25% 30.22 in 10.0 mi Calm Calm - N/A   Clear
5:53 PM 71.6 °F - 35.6 °F 27% 30.20 in 10.0 mi NNE 4.6 mph - N/A   Clear
6:53 PM 69.1 °F - 34.0 °F 27% 30.22 in 10.0 mi North 5.8 mph - N/A   Clear
7:53 PM 64.0 °F - 39.0 °F 40% 30.21 in 10.0 mi East 3.5 mph - N/A   Clear
8:53 PM 57.9 °F - 44.1 °F 60% 30.21 in 10.0 mi Calm Calm - N/A   Clear
9:53 PM 52.0 °F - 41.0 °F 66% 30.22 in 10.0 mi Calm Calm - N/A   Clear
10:53 PM 50.0 °F - 42.1 °F 74% 30.22 in 10.0 mi Calm Calm - N/A   Clear
11:53 PM 48.0 °F - 42.1 °F 80% 30.21 in 10.0 mi Calm Calm - N/A   Clear